Weather History for KNYC - February, 2008

Change the Weather History Date:

Wednesday, February 6, 2008

  Actual Average Record
Temperature  
Mean Temperature 55 °F 34 °F  
Max Temperature 68 °F 40 °F 68 °F (2008)
Min Temperature 41 °F 28 °F -4 °F (1895)
Degree Days  
Heating Degree Days 10 31  
Month to date heating degree days 129 189  
Since 1 July heating degree days 2598 2878  
Cooling Degree Days 0 0  
Month to date cooling degree days 0 0  
Year to date cooling degree days 0 0  
Growing Degree Days 4 (Base 50)    
Moisture  
Dew Point 48 °F    
Average Humidity 80    
Maximum Humidity 96    
Minimum Humidity 63    
Precipitation  
Precipitation 0.04 in 0.11 in 2.74 in (1896)
Month to date precipitation 1.79 0.65  
Year to date precipitation 4.64 4.30  
Snow  
Snow 0.00 in 0.30 in 15.50 in (1978)
Month to date snowfall T 2.0  
Since 1 July snowfall 2.9 14.1  
Snow Depth 0.00 in    
Sea Level Pressure  
Sea Level Pressure 29.57 in    
Wind  
Wind Speed 5 mph (ENE)    
Max Wind Speed 21 mph    
Max Gust Speed 28 mph    
Visibility 6 miles    
Events Rain    
T = Trace of Precipitation, MM = Missing Value Source: NWS Daily Summary

Daily Weather History Graph

Daily Weather History Graph

Search for Another Location

Airport or City:

Trip Planner

Search our weather history database for the weather conditions in past years. The results will help you decide how hot, cold, wet, or windy it might be!

Date:

Astronomy

Feb. 06, 2008 Rise Set
Actual Time 7:01 AM EST 5:18 PM EST
Civil Twilight 6:32 AM EST 5:47 PM EST
Nautical Twilight 6:00 AM EST 6:20 PM EST
Astronomical Twilight 5:28 AM EST 6:52 PM EST
Moon 6:52 AM EST (2/6) 4:55 PM EST (2/6)
Length of Visible Light 11h 14m
Length of Day
10h 17m
Waning Crescent, 0% of the Moon is Illuminated
Feb 6
Waning Crescent
Feb 6
New
Feb 13
First Quarter
Feb 20
Full
Feb 28
Last Quarter

Hourly Weather History & Observations

Time (EST) Temp. Windchill Dew Point Humidity Pressure Visibility Wind Dir Wind Speed Gust Speed Precip Events Conditions
12:51 AM 51.1 °F - 46.0 °F 83% 29.80 in 7.0 mi Calm Calm - N/A   Scattered Clouds
1:51 AM 51.1 °F - 46.0 °F 83% 29.80 in 6.0 mi Calm Calm - N/A   Haze
2:51 AM 50.0 °F - 46.0 °F 86% 29.74 in 6.0 mi Calm Calm - N/A   Overcast
3:51 AM 50.0 °F - 46.0 °F 86% 29.71 in 6.0 mi Calm Calm - N/A   Mostly Cloudy
4:51 AM 50.0 °F - 46.0 °F 86% 29.70 in 6.0 mi SE 5.8 mph - N/A   Clear
5:51 AM 50.0 °F - 46.0 °F 86% 29.65 in 5.0 mi SSE 4.6 mph - N/A   Clear
6:51 AM 50.0 °F - 46.9 °F 89% 29.60 in 5.0 mi Variable 6.9 mph 16.1 mph N/A   Scattered Clouds
7:40 AM 51.8 °F - 48.2 °F 88% 29.60 in 5.0 mi Variable 3.5 mph - N/A   Overcast
7:51 AM 52.0 °F - 48.0 °F 86% 29.57 in 5.0 mi Calm Calm - N/A   Overcast
8:16 AM 51.8 °F - 48.2 °F 88% 29.61 in 2.0 mi Variable 3.5 mph - 0.03 in Rain Light Rain
8:26 AM 53.6 °F - 50.0 °F 88% 29.59 in 3.0 mi Calm Calm - 0.03 in   Overcast
8:35 AM 51.8 °F - 50.0 °F 94% 29.57 in 2.0 mi Variable 4.6 mph - 0.03 in   Overcast
8:44 AM 51.8 °F - 50.0 °F 94% 29.57 in 1.8 mi Calm Calm - 0.03 in Rain Light Rain
8:51 AM 52.0 °F - 50.0 °F 93% 29.53 in 2.0 mi Calm Calm - 0.03 in   Overcast
9:15 AM 53.6 °F - 51.8 °F 94% 29.55 in 3.0 mi Variable 5.8 mph - N/A   Mostly Cloudy
9:33 AM 55.4 °F - 51.8 °F 88% 29.54 in 4.0 mi Variable 5.8 mph - N/A   Scattered Clouds
9:51 AM 55.0 °F - 51.1 °F 86% 29.50 in 5.0 mi Variable 3.5 mph - N/A   Clear
10:51 AM 57.0 °F - 52.0 °F 83% 29.54 in 5.0 mi Variable 3.5 mph - N/A   Haze
11:51 AM 59.0 °F - 52.0 °F 78% 29.54 in 5.0 mi Calm Calm - N/A   Haze
12:51 PM 66.9 °F - 54.0 °F 63% 29.52 in 10.0 mi West 8.1 mph - N/A   Clear
1:51 PM 66.0 °F - 54.0 °F 65% 29.55 in 10.0 mi WSW 9.2 mph 20.7 mph 0.00 in Rain Light Rain
2:51 PM 64.0 °F - 55.0 °F 73% 29.49 in 10.0 mi Variable 5.8 mph - 0.01 in   Partly Cloudy
3:51 PM 64.0 °F - 55.0 °F 73% 29.54 in 10.0 mi Variable 5.8 mph - N/A   Mostly Cloudy
4:51 PM 64.9 °F - 55.0 °F 70% 29.53 in 10.0 mi Variable 4.6 mph - N/A   Mostly Cloudy
5:51 PM 63.0 °F - 54.0 °F 72% 29.53 in 10.0 mi NE 3.5 mph - N/A   Overcast
6:51 PM 55.0 °F - 51.1 °F 86% 29.52 in 9.0 mi NNE 5.8 mph - 0.00 in Rain Light Rain
7:51 PM 53.1 °F - 48.9 °F 86% 29.52 in 7.0 mi NE 10.4 mph 18.4 mph 0.00 in   Mostly Cloudy
8:01 PM 51.8 °F - 46.4 °F 82% 29.54 in 7.0 mi NE 16.1 mph 21.9 mph N/A   Mostly Cloudy
8:11 PM 50.0 °F - 46.4 °F 87% 29.54 in 7.0 mi NE 10.4 mph - N/A   Mostly Cloudy
8:51 PM 46.9 °F - 43.0 °F 86% 29.52 in 10.0 mi ENE 15.0 mph 20.7 mph N/A   Overcast
9:51 PM 44.1 °F 37.1 °F 39.9 °F 85% 29.49 in 10.0 mi ENE 15.0 mph 24.2 mph N/A   Overcast
10:51 PM 42.1 °F 35.2 °F 39.9 °F 92% 29.46 in 5.0 mi ENE 12.7 mph 24.2 mph N/A   Overcast
11:39 PM 41.0 °F 32.5 °F 39.2 °F 93% 29.46 in 8.0 mi ENE 17.3 mph 25.3 mph N/A   Overcast
11:51 PM 41.0 °F 35.2 °F 39.0 °F 93% 29.43 in 8.0 mi NE 9.2 mph 24.2 mph N/A   Overcast